EZY81ER EGGP-GCRR

Flight info

Callsign EZY81ER
Flight time 3h 53m
Altitude 38000
Route WAL L10 PENIL M144 BAGSO DCT TUVEN/M079F380 DCT LASNO T9 BEGAS/N0456F380 DCT DEMOS DCT DIRMA DCT TAKAV DCT VEDOD UN857 TERTO
Aircraft A320/M-SDE3FGHIRWY/LB1

Departure

Time 2026-04-29 08:28
Airport Liverpool John Lennon Airport (EGGP)

Arrival

Time 2026-04-29 12:22
Airport César Manrique-Lanzarote Airport (GCRR)
Time Latitude Longitude Altitude Speed Heading
2026-04-29 08:13 53.33668 -2.85440 89 ft 0 kts 355°
2026-04-29 08:21 53.33667 -2.85439 89 ft 2 kts 355°
2026-04-29 08:22 53.33647 -2.85436 89 ft 3 kts 356°
2026-04-29 08:22 53.33621 -2.85440 89 ft 4 kts 26°
2026-04-29 08:22 53.33601 -2.85467 90 ft 4 kts 51°
2026-04-29 08:22 53.33584 -2.85501 90 ft 4 kts 34°
2026-04-29 08:23 53.33573 -2.85510 90 ft 0 kts 355°
2026-04-29 08:25 53.33593 -2.85515 89 ft 6 kts 342°
2026-04-29 08:25 53.33609 -2.85574 86 ft 7 kts 271°
2026-04-29 08:25 53.33605 -2.85735 85 ft 17 kts 264°
2026-04-29 08:26 53.33588 -2.85919 88 ft 13 kts 232°
2026-04-29 08:26 53.33505 -2.85936 85 ft 12 kts 189°
2026-04-29 08:26 53.33480 -2.86053 86 ft 12 kts 264°
2026-04-29 08:26 53.33472 -2.86197 84 ft 12 kts 266°
2026-04-29 08:27 53.33465 -2.86359 84 ft 15 kts 266°
2026-04-29 08:27 53.33456 -2.86532 81 ft 18 kts 266°
2026-04-29 08:27 53.33403 -2.86723 73 ft 17 kts 201°
2026-04-29 08:27 53.33305 -2.86655 73 ft 16 kts 126°
2026-04-29 08:28 53.33295 -2.86424 67 ft 35 kts 88°
2026-04-29 08:28 53.33337 -2.85550 84 ft 113 kts 85°
2026-04-29 08:28 53.33425 -2.83886 251 ft 159 kts 84°
2026-04-29 08:28 53.33535 -2.82040 1138 ft 160 kts 84°
2026-04-29 08:29 53.33657 -2.80221 1902 ft 161 kts 82°
2026-04-29 08:29 53.34011 -2.78308 2205 ft 185 kts 71°
2026-04-29 08:29 53.34825 -2.76441 2542 ft 219 kts 41°
2026-04-29 08:29 53.36390 -2.75647 2978 ft 258 kts
2026-04-29 08:30 53.38178 -2.76537 3686 ft 279 kts 335°
2026-04-29 08:30 53.40504 -2.81832 5292 ft 296 kts 289°
2026-04-29 08:30 53.41238 -2.85023 6158 ft 298 kts 293°
2026-04-29 08:31 53.42056 -2.88220 7046 ft 298 kts 295°
2026-04-29 08:31 53.42903 -2.91421 7835 ft 301 kts 295°
2026-04-29 08:31 53.43758 -2.94647 8631 ft 304 kts 296°
2026-04-29 08:31 53.44613 -2.97909 9410 ft 307 kts 296°
2026-04-29 08:32 53.45296 -3.01324 10170 ft 313 kts 282°
2026-04-29 08:32 53.45671 -3.04960 10736 ft 323 kts 281°
2026-04-29 08:32 53.45924 -3.07483 10856 ft 339 kts 280°
2026-04-29 08:32 53.46322 -3.11514 11063 ft 360 kts 280°
2026-04-29 08:33 53.46733 -3.15721 11547 ft 370 kts 280°
2026-04-29 08:33 53.47151 -3.20023 12146 ft 375 kts 279°
2026-04-29 08:33 53.47573 -3.24379 12764 ft 381 kts 279°
2026-04-29 08:33 53.47999 -3.28782 13382 ft 385 kts 279°
2026-04-29 08:34 53.48432 -3.33251 13980 ft 390 kts 279°
2026-04-29 08:34 53.48871 -3.37781 14532 ft 395 kts 279°
2026-04-29 08:34 53.49314 -3.42374 15081 ft 399 kts 279°
2026-04-29 08:34 53.49756 -3.46993 15643 ft 402 kts 279°
2026-04-29 08:35 53.50201 -3.51656 16207 ft 406 kts 279°
2026-04-29 08:35 53.50647 -3.56353 16764 ft 409 kts 279°
2026-04-29 08:35 53.51091 -3.61094 17315 ft 412 kts 279°
2026-04-29 08:35 53.51537 -3.65880 17870 ft 416 kts 279°
2026-04-29 08:36 53.51987 -3.70691 18404 ft 419 kts 279°
2026-04-29 08:36 53.52450 -3.75555 18887 ft 423 kts 280°
2026-04-29 08:36 53.52924 -3.80450 19353 ft 426 kts 280°
2026-04-29 08:36 53.53399 -3.85372 19823 ft 428 kts 280°
2026-04-29 08:37 53.53877 -3.90335 20284 ft 431 kts 280°
2026-04-29 08:37 53.54354 -3.95322 20740 ft 434 kts 280°
2026-04-29 08:37 53.54833 -4.00347 21198 ft 436 kts 280°
2026-04-29 08:37 53.55308 -4.05404 21639 ft 439 kts 280°
2026-04-29 08:38 53.55781 -4.10487 22076 ft 442 kts 280°
2026-04-29 08:38 53.56259 -4.15613 22497 ft 444 kts 280°
2026-04-29 08:38 53.56739 -4.20758 22915 ft 447 kts 280°
2026-04-29 08:38 53.57219 -4.25943 23332 ft 450 kts 280°
2026-04-29 08:39 53.57698 -4.31163 23742 ft 453 kts 280°
2026-04-29 08:39 53.58176 -4.36416 24132 ft 455 kts 280°
2026-04-29 08:39 53.58654 -4.41690 24458 ft 458 kts 280°
2026-04-29 08:39 53.59132 -4.46970 24605 ft 466 kts 280°
2026-04-29 08:40 53.59622 -4.52386 24844 ft 470 kts 280°
2026-04-29 08:40 53.60113 -4.57851 25126 ft 473 kts 280°
2026-04-29 08:40 53.60604 -4.63334 25429 ft 476 kts 280°
2026-04-29 08:40 53.61094 -4.68858 25734 ft 478 kts 279°
2026-04-29 08:41 53.61582 -4.74401 26048 ft 480 kts 279°
2026-04-29 08:41 53.62067 -4.79987 26348 ft 482 kts 279°
2026-04-29 08:41 53.62551 -4.85588 26652 ft 484 kts 279°
2026-04-29 08:41 53.63036 -4.91213 26942 ft 487 kts 279°
2026-04-29 08:42 53.63524 -4.96878 27238 ft 489 kts 279°
2026-04-29 08:42 53.64009 -5.02555 27552 ft 490 kts 279°
2026-04-29 08:42 53.64493 -5.08246 27870 ft 491 kts 279°
2026-04-29 08:42 53.64980 -5.13965 28161 ft 493 kts 279°
2026-04-29 08:43 53.65465 -5.19696 28440 ft 495 kts 279°
2026-04-29 08:43 53.65948 -5.25450 28719 ft 496 kts 279°
2026-04-29 08:43 53.66409 -5.31227 28991 ft 498 kts 276°
2026-04-29 08:43 53.66413 -5.37074 29235 ft 501 kts 264°
2026-04-29 08:44 53.65794 -5.42775 29470 ft 502 kts 252°
2026-04-29 08:44 53.64564 -5.48259 29707 ft 500 kts 241°
2026-04-29 08:44 53.62775 -5.53271 29937 ft 498 kts 230°
2026-04-29 08:44 53.60502 -5.57630 30182 ft 494 kts 218°
2026-04-29 08:45 53.57831 -5.61206 30364 ft 488 kts 207°
2026-04-29 08:45 53.54985 -5.64319 30639 ft 488 kts 207°
2026-04-29 08:45 53.52146 -5.67423 30917 ft 487 kts 207°
2026-04-29 08:45 53.49305 -5.70529 31203 ft 487 kts 207°
2026-04-29 08:46 53.46464 -5.73629 31478 ft 486 kts 207°
2026-04-29 08:46 53.43629 -5.76719 31761 ft 486 kts 207°
2026-04-29 08:46 53.40799 -5.79798 32031 ft 485 kts 207°
2026-04-29 08:46 53.37964 -5.82875 32305 ft 485 kts 207°
2026-04-29 08:47 53.35132 -5.85941 32589 ft 484 kts 207°
2026-04-29 08:47 53.32306 -5.89003 32872 ft 484 kts 207°
2026-04-29 08:47 53.29477 -5.92064 33143 ft 483 kts 206°
2026-04-29 08:47 53.26655 -5.95112 33417 ft 483 kts 206°
2026-04-29 08:48 53.23833 -5.98154 33695 ft 482 kts 206°
2026-04-29 08:48 53.21012 -6.01188 33969 ft 482 kts 206°
2026-04-29 08:48 53.18197 -6.04213 34236 ft 482 kts 206°
2026-04-29 08:48 53.15379 -6.07236 34489 ft 481 kts 206°
2026-04-29 08:49 53.12562 -6.10251 34731 ft 481 kts 206°
2026-04-29 08:49 53.09747 -6.13254 34973 ft 481 kts 206°
2026-04-29 08:49 53.06924 -6.16257 35188 ft 481 kts 206°
2026-04-29 08:49 53.04105 -6.19259 35376 ft 482 kts 206°
2026-04-29 08:50 53.01283 -6.22266 35586 ft 481 kts 206°
2026-04-29 08:50 52.98463 -6.25268 35777 ft 481 kts 206°
2026-04-29 08:50 52.95677 -6.28227 35969 ft 481 kts 206°
2026-04-29 08:50 52.92857 -6.31214 36156 ft 481 kts 206°
2026-04-29 08:51 52.90037 -6.34191 36321 ft 481 kts 206°
2026-04-29 08:51 52.84395 -6.40135 36355 ft 480 kts 206°
2026-04-29 08:52 52.78757 -6.46066 36347 ft 480 kts 206°
2026-04-29 08:52 52.73117 -6.51979 36344 ft 480 kts 206°
2026-04-29 08:53 52.67468 -6.57878 36340 ft 481 kts 206°
2026-04-29 08:53 52.61803 -6.63782 36343 ft 482 kts 206°
2026-04-29 08:53 52.58970 -6.66728 36525 ft 482 kts 206°
2026-04-29 08:54 52.56137 -6.69670 36746 ft 481 kts 206°
2026-04-29 08:54 52.53302 -6.72608 36927 ft 481 kts 206°
2026-04-29 08:54 52.50474 -6.75534 37111 ft 480 kts 206°
2026-04-29 08:54 52.47648 -6.78453 37282 ft 480 kts 206°
2026-04-29 08:55 52.44819 -6.81368 37470 ft 479 kts 206°
2026-04-29 08:55 52.41998 -6.84270 37650 ft 478 kts 206°
2026-04-29 08:55 52.39182 -6.87161 37828 ft 477 kts 206°
2026-04-29 08:55 52.36368 -6.90051 37987 ft 477 kts 206°
2026-04-29 08:56 52.33553 -6.92938 38167 ft 476 kts 206°
2026-04-29 08:56 52.30744 -6.95812 38320 ft 477 kts 207°
2026-04-29 08:56 52.27927 -6.98688 38299 ft 478 kts 207°
2026-04-29 08:57 52.22311 -7.04417 38300 ft 478 kts 207°
2026-04-29 08:57 52.16641 -7.10188 38303 ft 483 kts 207°
2026-04-29 08:58 52.10898 -7.15989 38303 ft 487 kts 207°
2026-04-29 08:58 52.05132 -7.21815 38326 ft 488 kts 207°
2026-04-29 08:59 51.99366 -7.27644 38323 ft 488 kts 207°
2026-04-29 08:59 51.93597 -7.33442 38312 ft 488 kts 207°
2026-04-29 09:00 51.87863 -7.39184 38310 ft 488 kts 207°
2026-04-29 09:00 51.82083 -7.44943 38292 ft 488 kts 207°
2026-04-29 09:01 51.76284 -7.50700 38308 ft 490 kts 207°
2026-04-29 09:01 51.70478 -7.56471 38292 ft 491 kts 207°
2026-04-29 09:02 51.64658 -7.62238 38277 ft 491 kts 207°
2026-04-29 09:02 51.58819 -7.67976 38278 ft 492 kts 206°
2026-04-29 09:03 51.52972 -7.73699 38298 ft 492 kts 207°
2026-04-29 09:03 51.47113 -7.79443 38286 ft 493 kts 207°
2026-04-29 09:04 51.41295 -7.85136 38272 ft 493 kts 207°
2026-04-29 09:04 51.35435 -7.90853 38272 ft 494 kts 207°
2026-04-29 09:05 51.29560 -7.96563 38290 ft 494 kts 207°
2026-04-29 09:05 51.23688 -8.02241 38270 ft 494 kts 207°
2026-04-29 09:06 51.17812 -8.07908 38259 ft 494 kts 207°
2026-04-29 09:06 51.11925 -8.13576 38254 ft 494 kts 207°
2026-04-29 09:07 51.06035 -8.19229 38245 ft 495 kts 207°
2026-04-29 09:07 51.00017 -8.24424 38258 ft 488 kts 196°
2026-04-29 09:08 50.93537 -8.27110 38250 ft 479 kts 186°
2026-04-29 09:08 50.87003 -8.29227 38249 ft 479 kts 186°
2026-04-29 09:09 50.80469 -8.31384 38242 ft 479 kts 186°
2026-04-29 09:09 50.73935 -8.33521 38229 ft 479 kts 186°
2026-04-29 09:10 50.67436 -8.35633 38230 ft 479 kts 186°
2026-04-29 09:10 50.60902 -8.37744 38227 ft 480 kts 186°
2026-04-29 09:11 50.54359 -8.39855 38235 ft 480 kts 186°
2026-04-29 09:11 50.47818 -8.41955 38218 ft 480 kts 186°
2026-04-29 09:12 50.41268 -8.44050 38212 ft 480 kts 186°
2026-04-29 09:12 50.34719 -8.46140 38204 ft 480 kts 187°
2026-04-29 09:13 50.28158 -8.48248 38214 ft 480 kts 187°
2026-04-29 09:13 50.21659 -8.50313 38214 ft 479 kts 187°
2026-04-29 09:14 50.15125 -8.52390 38203 ft 479 kts 187°
2026-04-29 09:14 50.08591 -8.54462 38211 ft 478 kts 187°
2026-04-29 09:15 50.02072 -8.56510 38196 ft 477 kts 187°
2026-04-29 09:15 49.95570 -8.58545 38186 ft 477 kts 187°
2026-04-29 09:16 49.89067 -8.60573 38178 ft 477 kts 187°
2026-04-29 09:16 49.82567 -8.62610 38181 ft 477 kts 187°
2026-04-29 09:17 49.76058 -8.64651 38173 ft 477 kts 187°
2026-04-29 09:17 49.69549 -8.66673 38160 ft 477 kts 187°
2026-04-29 09:18 49.63037 -8.68698 38173 ft 477 kts 187°
2026-04-29 09:18 49.56571 -8.70703 38164 ft 477 kts 187°
2026-04-29 09:19 49.50057 -8.72719 38150 ft 478 kts 187°
2026-04-29 09:19 49.43534 -8.74721 38141 ft 478 kts 187°
2026-04-29 09:20 49.38112 -8.76372 38161 ft 478 kts 188°
2026-04-29 09:20 49.31596 -8.78376 38146 ft 478 kts 188°
2026-04-29 09:21 49.25079 -8.80374 38133 ft 478 kts 187°
2026-04-29 09:21 49.18561 -8.82350 38133 ft 477 kts 188°
2026-04-29 09:22 49.12041 -8.84335 38134 ft 477 kts 188°
2026-04-29 09:22 49.05542 -8.86305 38129 ft 476 kts 188°
2026-04-29 09:23 48.99042 -8.88269 38110 ft 476 kts 187°
2026-04-29 09:23 48.92532 -8.90232 38117 ft 477 kts 188°
2026-04-29 09:24 48.86030 -8.92187 38111 ft 476 kts 187°
2026-04-29 09:24 48.79523 -8.94135 38109 ft 476 kts 187°
2026-04-29 09:25 48.73020 -8.96062 38107 ft 476 kts 187°
2026-04-29 09:25 48.66553 -8.97991 38101 ft 476 kts 187°
2026-04-29 09:26 48.60037 -8.99807 38095 ft 474 kts 182°
2026-04-29 09:26 48.53476 -9.00011 38086 ft 471 kts 176°
2026-04-29 09:27 48.46922 -9.00010 38077 ft 471 kts 177°
2026-04-29 09:27 48.40366 -9.00005 38086 ft 471 kts 178°
2026-04-29 09:28 48.33800 -9.00008 38080 ft 471 kts 178°
2026-04-29 09:28 48.27249 -9.00007 38085 ft 471 kts 177°
2026-04-29 09:29 48.20685 -9.00009 38076 ft 471 kts 178°
2026-04-29 09:29 48.10863 -9.00006 38062 ft 470 kts 177°
2026-04-29 09:30 48.04350 -8.99999 38070 ft 470 kts 177°
2026-04-29 09:30 47.97813 -8.99994 38066 ft 469 kts 178°
2026-04-29 09:31 47.91284 -8.99995 38047 ft 469 kts 176°
2026-04-29 09:31 47.84753 -8.99988 38054 ft 469 kts 178°
2026-04-29 09:32 47.78228 -8.99998 38045 ft 468 kts 179°
2026-04-29 09:32 47.71711 -9.00003 38050 ft 468 kts 179°
2026-04-29 09:33 47.65197 -8.99998 38047 ft 468 kts 179°
2026-04-29 09:33 47.58691 -9.00000 38044 ft 467 kts 178°
2026-04-29 09:34 47.52194 -8.99997 38032 ft 467 kts 179°
2026-04-29 09:34 47.45702 -8.99994 38038 ft 466 kts 179°
2026-04-29 09:35 47.39212 -8.99983 38027 ft 466 kts 178°
2026-04-29 09:35 47.32771 -8.99994 38030 ft 465 kts 179°
2026-04-29 09:36 47.26299 -8.99999 38021 ft 465 kts 179°
2026-04-29 09:36 47.19831 -9.00001 38025 ft 464 kts 180°
2026-04-29 09:37 47.13371 -8.99997 38022 ft 464 kts 179°
2026-04-29 09:37 47.06924 -8.99990 38016 ft 463 kts 179°
2026-04-29 09:38 47.00488 -8.99990 38014 ft 462 kts 180°
2026-04-29 09:38 46.94062 -8.99997 37997 ft 462 kts 180°
2026-04-29 09:39 46.87636 -9.00007 38007 ft 461 kts 180°
2026-04-29 09:39 46.81216 -9.00002 37988 ft 461 kts 180°
2026-04-29 09:40 46.74790 -8.99996 37979 ft 462 kts 180°
2026-04-29 09:40 46.68358 -8.99990 37976 ft 462 kts 180°
2026-04-29 09:41 46.61928 -8.99998 37991 ft 462 kts 180°
2026-04-29 09:41 46.55541 -8.99999 37989 ft 462 kts 181°
2026-04-29 09:42 46.49126 -9.00001 37990 ft 461 kts 181°
2026-04-29 09:42 46.42721 -9.00008 37986 ft 460 kts 181°
2026-04-29 09:43 46.36322 -8.99998 37980 ft 459 kts 180°
2026-04-29 09:43 46.29925 -8.99998 37986 ft 459 kts 181°
2026-04-29 09:44 46.23538 -9.00002 37975 ft 459 kts 181°
2026-04-29 09:44 46.17145 -9.00002 37972 ft 459 kts 181°
2026-04-29 09:45 46.10789 -8.99989 37964 ft 459 kts 182°
2026-04-29 09:45 46.04404 -8.99999 37967 ft 458 kts 181°
2026-04-29 09:46 45.98021 -9.00007 37954 ft 459 kts 182°
2026-04-29 09:46 45.91627 -9.00012 37954 ft 460 kts 181°
2026-04-29 09:47 45.85223 -9.00013 37956 ft 460 kts 182°
2026-04-29 09:47 45.78855 -9.00004 37950 ft 461 kts 181°
2026-04-29 09:48 45.72445 -9.00004 37960 ft 460 kts 182°
2026-04-29 09:48 45.66035 -9.00001 37961 ft 460 kts 181°
2026-04-29 09:49 45.59629 -8.99996 37947 ft 460 kts 181°
2026-04-29 09:49 45.53233 -9.00004 37950 ft 460 kts 182°
2026-04-29 09:50 45.46832 -9.00006 37945 ft 460 kts 182°
2026-04-29 09:50 45.40465 -9.00002 37934 ft 460 kts 182°
2026-04-29 09:51 45.34065 -8.99995 37943 ft 460 kts 181°
2026-04-29 09:51 45.27670 -9.00003 37953 ft 459 kts 182°
2026-04-29 09:52 45.21275 -9.00004 37934 ft 459 kts 182°
2026-04-29 09:52 45.14890 -8.99995 37951 ft 458 kts 182°
2026-04-29 09:53 45.08527 -8.99998 37943 ft 457 kts 182°
2026-04-29 09:53 45.02169 -9.00008 37928 ft 456 kts 182°
2026-04-29 09:54 44.95876 -9.00346 37943 ft 454 kts 186°
2026-04-29 09:54 44.89590 -9.01143 37945 ft 453 kts 187°
2026-04-29 09:55 44.83322 -9.02041 37929 ft 452 kts 188°
2026-04-29 09:55 44.77063 -9.02864 37931 ft 451 kts 187°
2026-04-29 09:56 44.70803 -9.03622 37934 ft 451 kts 187°
2026-04-29 09:56 44.64549 -9.04363 37934 ft 451 kts 187°
2026-04-29 09:57 44.58296 -9.05121 37919 ft 451 kts 187°
2026-04-29 09:57 44.52049 -9.05901 37919 ft 451 kts 187°
2026-04-29 09:58 44.45839 -9.06666 37915 ft 451 kts 187°
2026-04-29 09:58 44.39545 -9.07421 37919 ft 451 kts 187°
2026-04-29 09:59 44.33286 -9.08167 37919 ft 451 kts 187°
2026-04-29 09:59 44.27030 -9.08920 37920 ft 451 kts 187°
2026-04-29 10:00 44.20813 -9.09679 37902 ft 452 kts 187°
2026-04-29 10:00 44.14547 -9.10439 37902 ft 452 kts 187°
2026-04-29 10:01 44.08266 -9.11189 37903 ft 452 kts 188°
2026-04-29 10:01 44.01980 -9.11951 37894 ft 453 kts 187°
2026-04-29 10:02 43.95695 -9.12707 37897 ft 453 kts 188°
2026-04-29 10:02 43.89412 -9.13452 37896 ft 453 kts 187°
2026-04-29 10:03 43.83121 -9.14198 37896 ft 453 kts 186°
2026-04-29 10:03 43.76879 -9.14938 37906 ft 452 kts 187°
2026-04-29 10:04 43.70622 -9.15685 37905 ft 451 kts 187°
2026-04-29 10:04 43.64370 -9.16435 37891 ft 450 kts 186°
2026-04-29 10:05 43.58129 -9.17173 37891 ft 449 kts 187°
2026-04-29 10:05 43.51900 -9.17902 37890 ft 448 kts 186°
2026-04-29 10:06 43.45724 -9.18620 37876 ft 448 kts 186°
2026-04-29 10:06 43.39520 -9.19344 37879 ft 447 kts 186°
2026-04-29 10:07 43.33330 -9.20076 37884 ft 446 kts 186°
2026-04-29 10:07 43.27137 -9.20804 37871 ft 446 kts 185°
2026-04-29 10:08 43.20954 -9.21526 37855 ft 446 kts 186°
2026-04-29 10:08 43.14762 -9.22244 37851 ft 447 kts 186°
2026-04-29 10:09 43.09612 -9.22842 37853 ft 447 kts 186°
2026-04-29 10:09 43.03410 -9.23565 37833 ft 447 kts 186°
2026-04-29 10:10 42.97193 -9.24295 37824 ft 449 kts 186°
2026-04-29 10:10 42.90966 -9.25022 37828 ft 449 kts 186°
2026-04-29 10:11 42.84728 -9.25742 37825 ft 450 kts 186°
2026-04-29 10:11 42.78479 -9.26453 37830 ft 451 kts 186°
2026-04-29 10:12 42.72256 -9.27162 37835 ft 451 kts 186°
2026-04-29 10:12 42.65993 -9.27879 37838 ft 451 kts 186°
2026-04-29 10:13 42.59728 -9.28595 37834 ft 451 kts 186°
2026-04-29 10:13 42.53467 -9.29311 37843 ft 452 kts 186°
2026-04-29 10:14 42.47199 -9.30029 37845 ft 452 kts 186°
2026-04-29 10:14 42.40978 -9.30741 37846 ft 452 kts 186°
2026-04-29 10:15 42.34711 -9.31453 37839 ft 452 kts 186°
2026-04-29 10:15 42.28444 -9.32160 37840 ft 452 kts 186°
2026-04-29 10:16 42.22181 -9.32867 37843 ft 452 kts 186°
2026-04-29 10:16 42.15910 -9.33575 37843 ft 452 kts 186°
2026-04-29 10:17 42.09639 -9.34281 37838 ft 452 kts 186°
2026-04-29 10:17 42.03359 -9.34983 37843 ft 453 kts 186°
2026-04-29 10:18 41.97083 -9.35691 37846 ft 452 kts 186°
2026-04-29 10:18 41.90879 -9.36267 37497 ft 444 kts 183°
2026-04-29 10:19 41.87802 -9.36337 36994 ft 440 kts 181°
2026-04-29 10:19 41.84747 -9.36296 36786 ft 438 kts 180°
2026-04-29 10:19 41.78643 -9.36144 36826 ft 439 kts 180°
2026-04-29 10:20 41.73131 -9.36090 36824 ft 440 kts 181°
2026-04-29 10:20 41.66979 -9.36105 36823 ft 446 kts 181°
2026-04-29 10:21 41.60735 -9.36138 36829 ft 450 kts 181°
2026-04-29 10:21 41.54439 -9.36172 36830 ft 452 kts 181°
2026-04-29 10:22 41.48138 -9.36189 36827 ft 453 kts 181°
2026-04-29 10:22 41.41879 -9.36188 36829 ft 453 kts 181°
2026-04-29 10:23 41.35565 -9.36194 36833 ft 453 kts 181°
2026-04-29 10:23 41.29265 -9.36216 36832 ft 453 kts 181°
2026-04-29 10:24 41.22962 -9.36234 36833 ft 453 kts 181°
2026-04-29 10:24 41.16654 -9.36243 36828 ft 453 kts 181°
2026-04-29 10:25 41.10346 -9.36257 36835 ft 453 kts 181°
2026-04-29 10:25 41.04037 -9.36263 36835 ft 453 kts 181°
2026-04-29 10:26 40.97769 -9.36270 36835 ft 453 kts 181°
2026-04-29 10:26 40.91456 -9.36287 36836 ft 454 kts 181°
2026-04-29 10:27 40.81976 -9.36308 36838 ft 454 kts 181°
2026-04-29 10:28 40.75654 -9.36315 36841 ft 454 kts 181°
2026-04-29 10:28 40.69331 -9.36323 36843 ft 455 kts 182°
2026-04-29 10:29 40.63000 -9.36335 36841 ft 455 kts 182°
2026-04-29 10:29 40.56669 -9.36357 36845 ft 455 kts 182°
2026-04-29 10:30 40.50336 -9.36368 36847 ft 455 kts 182°
2026-04-29 10:30 40.44001 -9.36370 36849 ft 455 kts 182°
2026-04-29 10:31 40.37662 -9.36382 36848 ft 455 kts 182°
2026-04-29 10:31 40.31320 -9.36402 36851 ft 455 kts 182°
2026-04-29 10:32 40.24983 -9.36419 36851 ft 455 kts 182°
2026-04-29 10:32 40.18637 -9.36430 36852 ft 455 kts 182°
2026-04-29 10:33 40.12295 -9.36440 36858 ft 455 kts 182°
2026-04-29 10:33 40.05990 -9.36454 36860 ft 456 kts 183°
2026-04-29 10:34 39.99654 -9.36465 36861 ft 455 kts 183°
2026-04-29 10:34 39.93308 -9.36479 36860 ft 455 kts 183°
2026-04-29 10:35 39.86974 -9.36487 36849 ft 455 kts 183°
2026-04-29 10:35 39.80641 -9.36503 36865 ft 455 kts 183°
2026-04-29 10:36 39.74308 -9.36513 36866 ft 455 kts 183°
2026-04-29 10:36 39.67969 -9.36523 36865 ft 455 kts 183°
2026-04-29 10:37 39.61627 -9.36528 36870 ft 456 kts 184°
2026-04-29 10:37 39.55289 -9.36546 36871 ft 456 kts 184°
2026-04-29 10:38 39.48940 -9.36565 36868 ft 456 kts 184°
2026-04-29 10:38 39.42597 -9.36577 36856 ft 456 kts 184°
2026-04-29 10:39 39.36263 -9.36590 36875 ft 455 kts 184°
2026-04-29 10:39 39.29976 -9.36599 36874 ft 455 kts 184°
2026-04-29 10:40 39.23643 -9.36604 36875 ft 455 kts 184°
2026-04-29 10:40 39.17313 -9.36616 36875 ft 454 kts 184°
2026-04-29 10:41 39.10998 -9.36630 36877 ft 454 kts 184°
2026-04-29 10:41 39.04677 -9.36645 36871 ft 454 kts 184°
2026-04-29 10:42 38.98361 -9.36659 36862 ft 454 kts 184°
2026-04-29 10:42 38.92053 -9.36670 36865 ft 453 kts 185°
2026-04-29 10:43 38.85781 -9.36680 36867 ft 453 kts 185°
2026-04-29 10:43 38.79472 -9.36695 36866 ft 453 kts 185°
2026-04-29 10:44 38.73165 -9.36713 36873 ft 452 kts 185°
2026-04-29 10:44 38.66875 -9.36722 36892 ft 452 kts 185°
2026-04-29 10:45 38.60593 -9.36732 36895 ft 452 kts 185°
2026-04-29 10:45 38.54304 -9.36742 36901 ft 452 kts 185°
2026-04-29 10:46 38.48022 -9.36750 36902 ft 451 kts 186°
2026-04-29 10:46 38.41748 -9.36758 36903 ft 451 kts 186°
2026-04-29 10:47 38.35468 -9.36778 36906 ft 451 kts 186°
2026-04-29 10:47 38.29199 -9.36794 36905 ft 450 kts 186°
2026-04-29 10:48 38.22927 -9.36802 36910 ft 451 kts 186°
2026-04-29 10:48 38.16688 -9.36812 36909 ft 451 kts 186°
2026-04-29 10:49 38.10417 -9.36816 36904 ft 451 kts 186°
2026-04-29 10:49 38.04149 -9.36827 36912 ft 450 kts 186°
2026-04-29 10:50 37.97879 -9.36844 36918 ft 450 kts 186°
2026-04-29 10:50 37.91610 -9.36859 36916 ft 451 kts 186°
2026-04-29 10:51 37.85339 -9.36869 36916 ft 451 kts 186°
2026-04-29 10:51 37.79060 -9.36874 36917 ft 451 kts 186°
2026-04-29 10:52 37.72826 -9.36881 36917 ft 451 kts 186°
2026-04-29 10:52 37.66553 -9.36899 36918 ft 450 kts 186°
2026-04-29 10:53 37.60285 -9.36904 36925 ft 450 kts 186°
2026-04-29 10:53 37.54013 -9.36916 36928 ft 450 kts 187°
2026-04-29 10:54 37.47743 -9.36926 36928 ft 450 kts 187°
2026-04-29 10:54 37.41476 -9.36935 36931 ft 450 kts 187°
2026-04-29 10:55 37.35207 -9.36952 36933 ft 450 kts 187°
2026-04-29 10:55 37.28946 -9.36965 36934 ft 449 kts 187°
2026-04-29 10:56 37.23751 -9.36974 36934 ft 449 kts 187°
2026-04-29 10:56 37.17499 -9.36986 36934 ft 449 kts 187°
2026-04-29 10:57 37.11245 -9.37004 36939 ft 449 kts 187°
2026-04-29 10:57 37.05007 -9.37013 36942 ft 447 kts 187°
2026-04-29 10:58 36.98779 -9.37021 36942 ft 447 kts 187°
2026-04-29 10:58 36.92561 -9.37028 36945 ft 447 kts 187°
2026-04-29 10:59 36.86348 -9.37035 36918 ft 446 kts 187°
2026-04-29 10:59 36.80182 -9.37047 36948 ft 445 kts 187°
2026-04-29 11:00 36.73990 -9.37065 36949 ft 445 kts 187°
2026-04-29 11:00 36.67806 -9.37084 36948 ft 445 kts 187°
2026-04-29 11:01 36.61615 -9.37084 36915 ft 444 kts 187°
2026-04-29 11:01 36.55437 -9.37092 36950 ft 443 kts 187°
2026-04-29 11:02 36.49307 -9.37106 36948 ft 443 kts 187°
2026-04-29 11:02 36.43136 -9.37118 36955 ft 443 kts 187°
2026-04-29 11:03 36.36968 -9.37130 36930 ft 443 kts 187°
2026-04-29 11:03 36.30804 -9.37142 36956 ft 443 kts 187°
2026-04-29 11:04 36.24641 -9.37151 36959 ft 442 kts 187°
2026-04-29 11:04 36.18487 -9.37162 36959 ft 442 kts 187°
2026-04-29 11:05 36.12332 -9.37171 36938 ft 442 kts 186°
2026-04-29 11:05 36.06175 -9.37181 36965 ft 442 kts 186°
2026-04-29 11:06 36.00024 -9.37221 36958 ft 440 kts 190°
2026-04-29 11:06 35.94210 -9.38732 36957 ft 425 kts 207°
2026-04-29 11:07 35.88887 -9.41796 36967 ft 422 kts 211°
2026-04-29 11:07 35.83583 -9.44914 36964 ft 422 kts 210°
2026-04-29 11:08 35.78276 -9.48015 36969 ft 423 kts 210°
2026-04-29 11:08 35.72966 -9.51128 36953 ft 423 kts 211°
2026-04-29 11:09 35.67658 -9.54252 36975 ft 423 kts 210°
2026-04-29 11:09 35.62342 -9.57359 36960 ft 423 kts 210°
2026-04-29 11:10 35.57023 -9.60457 36955 ft 423 kts 210°
2026-04-29 11:10 35.51705 -9.63564 36976 ft 423 kts 210°
2026-04-29 11:11 35.46386 -9.66667 36966 ft 423 kts 210°
2026-04-29 11:11 35.41064 -9.69756 36979 ft 423 kts 210°
2026-04-29 11:12 35.35742 -9.72843 36963 ft 423 kts 210°
2026-04-29 11:12 35.30422 -9.75926 36975 ft 423 kts 210°
2026-04-29 11:13 35.25095 -9.79004 36975 ft 423 kts 210°
2026-04-29 11:13 35.19775 -9.82075 36975 ft 423 kts 210°
2026-04-29 11:14 35.14480 -9.85130 36975 ft 424 kts 210°
2026-04-29 11:14 35.09141 -9.88216 36954 ft 425 kts 210°
2026-04-29 11:15 35.03799 -9.91289 36978 ft 425 kts 210°
2026-04-29 11:15 34.98452 -9.94358 36977 ft 424 kts 210°
2026-04-29 11:16 34.93113 -9.97425 36981 ft 424 kts 210°
2026-04-29 11:16 34.87766 -10.00487 36980 ft 425 kts 210°
2026-04-29 11:17 34.82416 -10.03550 36960 ft 424 kts 210°
2026-04-29 11:17 34.77062 -10.06610 36983 ft 425 kts 210°
2026-04-29 11:18 34.71712 -10.09653 36984 ft 425 kts 210°
2026-04-29 11:18 34.66360 -10.12699 36986 ft 425 kts 210°
2026-04-29 11:19 34.61014 -10.15750 36989 ft 425 kts 210°
2026-04-29 11:19 34.55692 -10.18777 36969 ft 425 kts 209°
2026-04-29 11:20 34.50332 -10.21809 36986 ft 426 kts 209°
2026-04-29 11:20 34.44957 -10.24853 36989 ft 426 kts 209°
2026-04-29 11:21 34.39584 -10.27899 36989 ft 426 kts 209°
2026-04-29 11:21 34.34208 -10.30939 36989 ft 427 kts 209°
2026-04-29 11:22 34.28823 -10.33968 36976 ft 426 kts 209°
2026-04-29 11:22 34.23436 -10.37000 36990 ft 427 kts 209°
2026-04-29 11:23 34.18058 -10.40028 36992 ft 426 kts 209°
2026-04-29 11:23 34.12674 -10.43054 36991 ft 427 kts 209°
2026-04-29 11:24 34.07287 -10.46065 36990 ft 427 kts 209°
2026-04-29 11:24 34.01935 -10.49058 36966 ft 426 kts 208°
2026-04-29 11:25 33.96552 -10.52073 36997 ft 427 kts 209°
2026-04-29 11:25 33.91170 -10.55085 36996 ft 427 kts 209°
2026-04-29 11:26 33.83079 -10.59594 36995 ft 428 kts 208°
2026-04-29 11:26 33.77668 -10.62608 36995 ft 429 kts 208°
2026-04-29 11:27 33.72250 -10.65624 36997 ft 429 kts 208°
2026-04-29 11:27 33.66865 -10.68607 36997 ft 429 kts 208°
2026-04-29 11:28 33.61440 -10.71605 36997 ft 429 kts 208°
2026-04-29 11:28 33.56020 -10.74602 36997 ft 429 kts 208°
2026-04-29 11:29 33.50596 -10.77600 36997 ft 429 kts 208°
2026-04-29 11:29 33.45178 -10.80600 37001 ft 429 kts 208°
2026-04-29 11:30 33.39750 -10.83598 36992 ft 429 kts 208°
2026-04-29 11:30 33.34324 -10.86586 37000 ft 430 kts 208°
2026-04-29 11:31 33.28881 -10.89567 37006 ft 430 kts 208°
2026-04-29 11:31 33.23448 -10.92541 37003 ft 430 kts 208°
2026-04-29 11:32 33.18007 -10.95517 37001 ft 431 kts 208°
2026-04-29 11:32 33.12540 -10.98520 37001 ft 433 kts 208°
2026-04-29 11:33 33.07066 -11.01521 36998 ft 433 kts 208°
2026-04-29 11:33 33.01580 -11.04512 37001 ft 433 kts 208°
2026-04-29 11:34 32.96132 -11.07484 37004 ft 433 kts 208°
2026-04-29 11:34 32.90649 -11.10468 37002 ft 433 kts 208°
2026-04-29 11:35 32.85163 -11.13446 37007 ft 433 kts 208°
2026-04-29 11:35 32.79677 -11.16424 37007 ft 433 kts 208°
2026-04-29 11:36 32.74193 -11.19399 37008 ft 433 kts 208°
2026-04-29 11:36 32.68704 -11.22375 37006 ft 433 kts 208°
2026-04-29 11:37 32.63213 -11.25348 37000 ft 434 kts 207°
2026-04-29 11:37 32.57712 -11.28309 37005 ft 434 kts 207°
2026-04-29 11:38 32.52248 -11.31247 37009 ft 434 kts 207°
2026-04-29 11:38 32.46737 -11.34221 37006 ft 436 kts 208°
2026-04-29 11:39 32.41210 -11.37194 37005 ft 437 kts 207°
2026-04-29 11:39 32.35676 -11.40167 36999 ft 437 kts 207°
2026-04-29 11:40 32.30136 -11.43142 37007 ft 437 kts 207°
2026-04-29 11:40 32.24594 -11.46111 37003 ft 437 kts 207°
2026-04-29 11:41 32.19082 -11.49060 37006 ft 437 kts 207°
2026-04-29 11:41 32.13541 -11.52013 37005 ft 437 kts 207°
2026-04-29 11:42 32.07996 -11.54963 36989 ft 437 kts 207°
2026-04-29 11:42 32.02442 -11.57925 37005 ft 438 kts 207°
2026-04-29 11:43 31.96884 -11.60887 37003 ft 438 kts 207°
2026-04-29 11:43 31.91327 -11.63842 37003 ft 438 kts 207°
2026-04-29 11:44 31.86700 -11.66294 37001 ft 438 kts 207°
2026-04-29 11:44 31.81136 -11.69238 37006 ft 438 kts 207°
2026-04-29 11:45 31.74661 -11.72666 37000 ft 439 kts 207°
2026-04-29 11:45 31.70000 -11.75132 37006 ft 439 kts 207°
2026-04-29 11:46 31.64425 -11.78074 37006 ft 439 kts 207°
2026-04-29 11:46 31.58853 -11.81011 37007 ft 439 kts 207°
2026-04-29 11:47 31.53273 -11.83948 37008 ft 439 kts 207°
2026-04-29 11:47 31.47690 -11.86875 37006 ft 439 kts 207°
2026-04-29 11:48 31.42114 -11.89793 37007 ft 439 kts 207°
2026-04-29 11:48 31.36574 -11.92701 37005 ft 439 kts 207°
2026-04-29 11:49 31.30996 -11.95625 37006 ft 439 kts 207°
2026-04-29 11:49 31.25415 -11.98548 37007 ft 439 kts 207°
2026-04-29 11:50 31.19837 -12.01463 37008 ft 439 kts 208°
2026-04-29 11:50 31.14257 -12.04372 37015 ft 439 kts 208°
2026-04-29 11:51 31.08680 -12.07284 37011 ft 439 kts 208°
2026-04-29 11:51 31.03101 -12.10182 37012 ft 439 kts 208°
2026-04-29 11:52 30.97514 -12.13089 37007 ft 439 kts 208°
2026-04-29 11:52 30.91931 -12.15995 37006 ft 438 kts 208°
2026-04-29 11:53 30.86361 -12.18880 37007 ft 438 kts 208°
2026-04-29 11:53 30.80790 -12.21750 37007 ft 438 kts 208°
2026-04-29 11:54 30.75264 -12.24607 37005 ft 437 kts 208°
2026-04-29 11:54 30.69705 -12.27486 37008 ft 437 kts 208°
2026-04-29 11:55 30.64143 -12.30359 36994 ft 437 kts 208°
2026-04-29 11:55 30.58582 -12.33224 37003 ft 437 kts 208°
2026-04-29 11:56 30.53022 -12.36075 37013 ft 436 kts 208°
2026-04-29 11:56 30.47883 -12.39653 37013 ft 429 kts 220°
2026-04-29 11:57 30.43104 -12.43787 37006 ft 428 kts 220°
2026-04-29 11:57 30.38310 -12.47893 37006 ft 428 kts 220°
2026-04-29 11:58 30.33512 -12.51987 36998 ft 428 kts 220°
2026-04-29 11:58 30.28721 -12.56086 37009 ft 427 kts 220°
2026-04-29 11:59 30.23973 -12.60154 37012 ft 427 kts 220°
2026-04-29 11:59 30.19196 -12.64238 37018 ft 427 kts 220°
2026-04-29 12:00 30.14415 -12.68314 36819 ft 429 kts 220°
2026-04-29 12:00 30.11991 -12.70381 35848 ft 436 kts 220°
2026-04-29 12:00 30.09705 -12.72656 35088 ft 432 kts 229°
2026-04-29 12:01 30.07694 -12.75227 34281 ft 433 kts 231°
2026-04-29 12:01 30.05686 -12.77827 33332 ft 436 kts 231°
2026-04-29 12:01 30.03652 -12.80454 32298 ft 441 kts 230°
2026-04-29 12:01 30.01606 -12.83090 31477 ft 441 kts 230°
2026-04-29 12:02 29.99558 -12.85722 30617 ft 442 kts 230°
2026-04-29 12:02 29.97501 -12.88361 29826 ft 441 kts 230°
2026-04-29 12:02 29.95459 -12.90981 29036 ft 438 kts 230°
2026-04-29 12:02 29.93460 -12.93545 28317 ft 433 kts 229°
2026-04-29 12:03 29.91418 -12.96073 27610 ft 429 kts 224°
2026-04-29 12:03 29.89038 -12.98129 26954 ft 428 kts 212°
2026-04-29 12:03 29.86333 -12.99543 26306 ft 426 kts 201°
2026-04-29 12:03 29.83536 -13.00630 25670 ft 423 kts 200°
2026-04-29 12:04 29.80757 -13.01699 25066 ft 419 kts 200°
2026-04-29 12:04 29.78006 -13.02754 24474 ft 414 kts 200°
2026-04-29 12:04 29.75279 -13.03802 23891 ft 410 kts 200°
2026-04-29 12:04 29.72589 -13.04839 23284 ft 406 kts 200°
2026-04-29 12:05 29.69921 -13.05873 22624 ft 402 kts 200°
2026-04-29 12:05 29.67279 -13.06897 22003 ft 398 kts 200°
2026-04-29 12:05 29.64667 -13.07909 21398 ft 395 kts 201°
2026-04-29 12:05 29.62076 -13.08913 20809 ft 391 kts 201°
2026-04-29 12:06 29.59505 -13.09904 20235 ft 388 kts 201°
2026-04-29 12:06 29.56954 -13.10885 19681 ft 385 kts 201°
2026-04-29 12:06 29.54426 -13.11858 19138 ft 382 kts 201°
2026-04-29 12:06 29.51916 -13.12826 18607 ft 379 kts 201°
2026-04-29 12:07 29.49428 -13.13786 18064 ft 376 kts 201°
2026-04-29 12:07 29.46986 -13.14727 17495 ft 373 kts 201°
2026-04-29 12:07 29.44528 -13.15671 16928 ft 371 kts 201°
2026-04-29 12:07 29.42092 -13.16602 16389 ft 368 kts 201°
2026-04-29 12:08 29.39664 -13.17530 15863 ft 366 kts 201°
2026-04-29 12:08 29.37258 -13.18451 15342 ft 364 kts 200°
2026-04-29 12:08 29.34855 -13.19348 14835 ft 362 kts 199°
2026-04-29 12:08 29.32441 -13.20163 14329 ft 361 kts 198°
2026-04-29 12:09 29.30017 -13.20925 13836 ft 360 kts 197°
2026-04-29 12:09 29.27603 -13.21664 13279 ft 358 kts 197°
2026-04-29 12:09 29.25235 -13.22388 12738 ft 355 kts 197°
2026-04-29 12:09 29.22855 -13.23126 12189 ft 353 kts 197°
2026-04-29 12:10 29.20502 -13.23891 11649 ft 350 kts 198°
2026-04-29 12:10 29.18174 -13.24675 11107 ft 348 kts 198°
2026-04-29 12:10 29.15860 -13.25465 10571 ft 346 kts 198°
2026-04-29 12:10 29.13563 -13.26253 10051 ft 343 kts 198°
2026-04-29 12:11 29.11281 -13.27032 9480 ft 341 kts 198°
2026-04-29 12:11 29.09014 -13.27801 8942 ft 338 kts 197°
2026-04-29 12:11 29.06789 -13.28631 8399 ft 334 kts 206°
2026-04-29 12:11 29.04846 -13.30050 7872 ft 330 kts 217°
2026-04-29 12:12 29.03014 -13.31624 7334 ft 328 kts 217°
2026-04-29 12:12 29.01200 -13.33203 6817 ft 326 kts 217°
2026-04-29 12:12 28.99408 -13.34771 6303 ft 324 kts 217°
2026-04-29 12:12 28.97626 -13.36331 5910 ft 319 kts 218°
2026-04-29 12:13 28.95894 -13.37839 5658 ft 307 kts 218°
2026-04-29 12:13 28.94223 -13.39287 5406 ft 297 kts 218°
2026-04-29 12:13 28.92600 -13.40682 5156 ft 287 kts 217°
2026-04-29 12:13 28.91047 -13.42009 4907 ft 278 kts 217°
2026-04-29 12:14 28.89517 -13.43309 4651 ft 270 kts 217°
2026-04-29 12:14 28.88024 -13.44575 4404 ft 266 kts 217°
2026-04-29 12:14 28.86562 -13.45850 4149 ft 264 kts 224°
2026-04-29 12:14 28.85420 -13.47468 3984 ft 262 kts 236°
2026-04-29 12:15 28.84405 -13.49194 3866 ft 262 kts 237°
2026-04-29 12:15 28.83403 -13.50934 3730 ft 262 kts 237°
2026-04-29 12:15 28.82412 -13.52658 3617 ft 255 kts 237°
2026-04-29 12:15 28.81462 -13.54303 3488 ft 242 kts 237°
2026-04-29 12:16 28.80552 -13.55871 3373 ft 231 kts 237°
2026-04-29 12:16 28.79683 -13.57366 3236 ft 222 kts 237°
2026-04-29 12:16 28.78842 -13.58810 3115 ft 214 kts 237°
2026-04-29 12:16 28.78130 -13.60258 2979 ft 206 kts 256°
2026-04-29 12:17 28.78129 -13.61830 2824 ft 200 kts 282°
2026-04-29 12:17 28.78491 -13.63350 2647 ft 198 kts 292°
2026-04-29 12:17 28.79172 -13.64692 2476 ft 195 kts 305°
2026-04-29 12:17 28.80057 -13.65840 2372 ft 191 kts 321°
2026-04-29 12:18 28.81154 -13.66574 2316 ft 176 kts 339°
2026-04-29 12:18 28.82291 -13.66869 2302 ft 161 kts 355°
2026-04-29 12:18 28.83379 -13.66802 2186 ft 154 kts 11°
2026-04-29 12:18 28.84381 -13.66409 2032 ft 152 kts 26°
2026-04-29 12:19 28.85335 -13.65857 1843 ft 154 kts 26°
2026-04-29 12:19 28.86277 -13.65313 1655 ft 148 kts 26°
2026-04-29 12:19 28.87166 -13.64799 1443 ft 140 kts 25°
2026-04-29 12:19 28.88031 -13.64298 1272 ft 139 kts 26°
2026-04-29 12:20 28.88895 -13.63798 1083 ft 139 kts 27°
2026-04-29 12:20 28.89751 -13.63302 907 ft 140 kts 27°
2026-04-29 12:20 28.90620 -13.62799 716 ft 140 kts 27°
2026-04-29 12:20 28.91488 -13.62297 546 ft 140 kts 30°
2026-04-29 12:21 28.92347 -13.61783 332 ft 138 kts 31°
2026-04-29 12:21 28.93207 -13.61301 152 ft 137 kts 31°
2026-04-29 12:21 28.94053 -13.60810 38 ft 133 kts 31°
2026-04-29 12:21 28.94759 -13.60398 43 ft 92 kts 26°
2026-04-29 12:22 28.95113 -13.60217 47 ft 36 kts 15°
2026-04-29 12:22 28.95304 -13.60225 49 ft 15 kts 321°
2026-04-29 12:22 28.95292 -13.60298 50 ft 11 kts 211°
2026-04-29 12:22 28.95231 -13.60336 50 ft 9 kts 207°
2026-04-29 12:23 28.95167 -13.60373 50 ft 16 kts 206°
2026-04-29 12:23 28.95043 -13.60443 49 ft 22 kts 207°
2026-04-29 12:23 28.94905 -13.60523 50 ft 19 kts 206°
2026-04-29 12:23 28.94893 -13.60637 50 ft 16 kts 297°
2026-04-29 12:24 28.94941 -13.60720 50 ft 7 kts 298°
2026-04-29 12:24 28.94961 -13.60765 48 ft 6 kts 296°
2026-04-29 12:24 28.94968 -13.60781 50 ft 0 kts 296°